Theta_e
353 358 364 365 365 365 365 365 366 365 365 366 365 365 365 365 364 364 363 363 362 362 361 361 360 359 359 359 359 359 359 359 358 357 359 361 363 363 366 364 365 360 363
355 360 365 366 366 367 366 366 365 364 363 363 363 364 363 362 362 362 361 361 361 362 362 361 359 360 359 356 358 356 357 357 360 360 359 360 361 363 363 361 362 361 363
355 360 363 367 366 365 366 368 364 363 363 363 363 362 362 361 361 361 360 361 361 360 359 359 359 358 359 356 357 358 358 358 356 354 351 344 354 360 360 360 361 361 361
357 359 360 367 367 365 365 365 366 364 363 363 363 362 361 361 360 361 362 362 361 361 360 360 359 358 358 356 357 360 357 354 355 351 339 344 345 351 354 351 358 360 360
355 358 360 368 367 365 365 365 365 365 364 364 362 361 361 361 360 361 361 360 360 359 359 358 359 359 357 358 358 357 354 353 350 342 338 340 342 341 341 344 353 360 359
354 357 365 366 365 365 366 365 365 364 364 362 361 361 361 360 361 360 360 360 360 360 360 360 360 359 358 358 357 356 353 352 344 341 339 342 342 344 344 347 355 359 359
354 358 360 367 367 366 365 365 364 362 363 362 362 361 362 360 360 361 362 361 360 361 359 359 359 358 358 358 356 358 355 354 345 341 338 339 340 346 347 348 357 359 359
354 357 360 366 365 364 361 361 360 361 361 362 362 363 361 361 362 359 358 358 361 359 358 357 357 357 356 355 355 354 357 356 349 339 339 340 341 351 354 358 357 360 360
357 357 357 356 357 363 362 362 363 363 360 360 360 360 359 360 359 358 361 360 360 359 357 357 356 356 355 355 357 356 356 354 340 340 341 340 346 349 355 360 361 360 362
355 355 354 354 355 356 356 361 361 362 362 361 362 363 361 361 360 362 362 362 359 359 358 358 356 356 357 356 357 357 355 352 345 344 344 346 350 355 360 359 361 361 362
352 352 352 353 353 353 352 357 361 363 362 361 360 361 360 352 354 357 360 361 360 360 359 358 356 355 355 357 358 358 354 347 343 344 345 350 360 361 361 360 361 362 362
346 349 352 351 351 352 356 352 352 354 354 351 342 348 352 352 351 356 357 363 361 361 360 359 358 358 355 347 348 352 343 343 341 341 346 356 363 363 363 362 363 361 361
346 349 348 349 350 352 350 349 350 352 351 349 344 348 348 351 350 353 353 356 352 358 352 354 350 350 348 346 337 337 346 345 346 347 350 360 362 362 362 363 362 361 361
344 346 348 351 349 350 349 348 349 350 349 348 346 344 351 349 345 347 349 347 347 349 349 348 347 345 344 347 339 341 344 347 346 347 347 360 361 365 362 364 362 361 361
345 345 346 348 349 350 348 348 347 347 349 348 347 346 347 345 345 347 345 346 345 346 347 347 346 343 342 345 345 345 346 348 346 345 345 358 360 361 364 363 362 361 360
345 344 348 349 351 349 347 347 347 349 348 346 346 344 340 347 345 348 346 347 349 349 352 350 348 346 344 346 345 346 347 349 347 348 346 351 361 360 360 363 363 362 361
345 345 347 349 350 347 346 346 347 347 348 345 344 342 341 348 347 343 343 343 347 347 349 350 348 347 346 347 346 347 347 348 350 349 349 350 355 361 361 362 364 364 363
345 344 349 352 349 347 346 346 347 346 345 345 347 345 346 349 347 345 344 342 343 344 343 345 344 345 339 342 347 348 347 349 346 349 348 349 352 353 358 361 361 363 362
344 346 346 351 348 347 347 348 346 347 344 342 345 344 346 350 348 344 338 336 337 342 342 340 340 344 341 343 348 348 349 344 346 350 348 348 350 353 353 358 361 362 361
344 345 346 348 348 347 346 347 344 343 341 341 341 342 346 349 341 335 338 338 341 342 342 338 340 345 345 345 351 349 348 349 344 349 348 349 350 351 351 352 356 356 361
344 344 343 344 345 346 343 341 341 338 336 336 337 344 348 350 346 343 340 344 345 342 343 342 342 344 342 341 337 337 342 343 347 347 349 348 348 348 347 350 352 352 354
343 343 343 344 346 346 344 340 342 339 336 336 344 348 349 351 350 347 341 343 347 349 345 344 343 341 337 343 339 333 328 333 336 342 341 346 347 347 346 348 351 350 349
342 343 342 344 345 344 342 341 342 343 343 342 345 345 349 351 348 350 349 348 348 347 344 341 340 343 334 339 338 330 326 325 328 333 338 345 344 344 345 346 347 347 347
342 344 343 344 344 344 344 342 340 337 336 338 339 343 347 349 345 351 350 349 346 348 343 345 349 345 338 336 340 342 336 335 324 320 330 339 342 345 343 346 347 347 346
343 343 344 344 344 344 344 342 341 336 338 339 341 343 344 343 343 347 352 351 349 349 345 347 346 345 343 341 337 334 334 336 334 330 329 333 341 341 340 342 345 346 346
343 343 345 343 342 342 344 343 342 339 339 342 341 341 344 341 335 334 348 350 350 349 347 348 348 347 345 344 344 339 339 336 335 336 331 330 332 336 340 341 344 344 350
Wind_Speed
7 9 14 15 15 14 14 14 15 15 15 15 14 14 16 16 16 15 14 14 13 12 11 10 8 7 7 7 8 7 7 8 11 12 10 9 10 11 14 16 16 10 13
11 10 15 15 15 15 14 14 15 14 14 14 13 13 14 15 14 13 12 13 12 11 11 10 8 7 7 5 6 2 5 7 12 13 11 8 10 11 14 12 13 10 13
12 10 12 14 14 15 14 14 15 15 13 13 13 12 12 12 12 12 11 11 11 10 9 8 7 5 5 3 5 6 8 13 14 13 13 3 5 9 11 9 11 11 12
13 9 10 14 14 15 12 12 14 15 13 12 11 11 11 11 10 11 10 10 10 10 9 8 6 5 5 4 7 11 10 9 11 13 5 5 3 7 8 4 3 9 11
12 9 10 14 16 16 15 13 14 13 13 11 10 10 10 10 9 11 10 10 10 9 8 7 7 6 5 7 9 12 8 7 8 9 3 3 3 3 2 2 6 9 10
11 8 13 15 16 15 14 13 12 11 12 10 9 9 9 9 10 11 10 10 10 9 9 9 8 6 6 8 12 10 8 8 6 5 5 5 1 14 10 10 9 10 11
11 9 11 15 15 15 14 12 12 11 10 10 10 10 9 9 10 11 10 11 10 10 8 8 8 7 8 9 11 14 10 10 6 5 4 5 3 12 10 14 16 13 13
13 10 9 14 14 14 13 13 11 10 9 10 10 9 9 9 9 9 10 11 11 10 8 7 7 6 5 7 10 11 16 15 7 5 5 5 9 11 12 17 16 14 14
11 10 6 6 12 15 13 11 11 10 11 10 10 10 9 9 9 9 8 10 11 10 9 8 7 6 5 5 15 14 15 13 2 1 5 4 10 13 14 16 15 14 14
10 8 6 4 5 6 6 12 11 11 10 10 9 9 10 9 9 9 8 10 10 10 10 9 8 7 7 5 11 16 13 9 2 4 2 1 8 15 16 17 16 15 14
8 8 6 5 6 6 6 6 9 11 10 9 8 8 7 3 4 6 8 11 12 11 11 10 8 7 6 8 10 14 13 3 4 3 1 8 11 17 17 15 15 13 12
9 8 7 6 6 6 5 5 4 4 3 3 2 2 3 3 4 6 7 12 12 12 11 9 9 10 7 4 3 8 3 4 3 3 3 10 14 16 16 15 13 13 13
13 9 8 7 7 6 5 4 3 2 2 3 5 5 3 3 4 4 3 4 4 10 3 6 5 3 4 5 4 3 4 4 2 2 4 10 13 16 17 15 15 16 15
13 11 8 8 7 6 5 4 4 3 3 3 4 4 3 3 3 4 3 1 3 2 3 2 2 4 5 6 7 5 5 3 2 2 4 10 13 15 17 16 16 14 14
12 12 10 7 7 7 6 4 4 4 3 4 4 4 3 4 2 2 4 3 3 3 3 3 4 4 4 5 5 5 5 4 5 3 3 14 14 15 16 17 17 16 16
11 11 10 10 8 8 5 6 4 4 4 4 3 4 5 2 3 4 3 2 3 1 3 3 3 4 4 4 5 5 5 4 5 5 4 7 16 14 15 16 16 17 17
14 12 10 10 9 8 7 5 4 4 3 4 4 6 6 5 5 6 4 3 3 2 4 3 3 3 1 1 2 4 4 5 6 7 6 4 7 14 14 16 15 15 15
12 13 11 9 8 8 7 5 4 4 3 4 2 3 3 4 5 5 3 3 4 2 2 2 2 2 2 1 2 3 4 5 7 7 5 5 6 6 10 15 16 16 15
13 13 11 11 12 9 7 5 5 4 3 3 2 1 4 6 5 4 3 3 2 2 3 2 1 2 1 2 4 4 4 5 8 6 8 7 8 6 4 11 14 13 14
10 11 10 9 9 7 5 3 2 2 3 3 3 4 5 5 5 4 3 3 4 3 0 2 1 1 1 2 3 1 3 4 5 4 7 7 6 6 5 6 5 6 13
11 10 11 9 7 6 3 3 2 3 2 2 4 5 6 5 6 5 3 1 1 1 2 2 1 3 2 2 1 3 3 2 4 5 4 6 8 7 6 6 4 4 5
13 13 11 11 10 8 5 3 3 3 3 2 3 4 5 5 5 5 4 3 3 2 2 1 3 1 2 2 3 1 3 4 4 2 2 5 8 5 7 8 8 7 5
13 14 13 12 12 8 7 3 2 2 1 2 1 2 2 5 6 6 6 4 3 3 3 3 4 5 3 1 2 4 2 3 1 2 3 4 5 4 4 6 6 5 8
16 13 12 11 12 9 8 6 5 4 3 3 2 2 4 4 4 1 5 6 4 3 4 3 1 3 4 2 1 2 1 4 2 3 1 1 5 3 3 4 5 7 5
15 14 12 12 12 11 9 8 5 4 4 3 2 3 3 3 4 2 4 4 4 2 2 3 2 3 2 2 3 2 1 1 2 2 2 3 3 1 3 3 4 4 6
14 13 12 12 12 8 9 8 8 8 6 3 2 3 3 3 1 4 3 3 3 3 3 3 2 4 4 3 3 3 3 3 3 2 1 0 2 3 3 3 3 4 4
Wind_Direction
159 158 159 149 146 140 136 126 119 118 113 113 109 110 114 118 115 114 124 130 134 141 148 159 161 155 150 151 131 131 114 111 111 114 101 113 129 139 123 117 114 122 120
145 152 156 153 151 147 145 132 124 122 120 118 116 117 116 116 115 120 121 126 131 142 149 160 170 164 157 143 136 90 143 109 102 98 90 79 135 132 119 118 121 126 125
140 148 153 145 146 145 153 137 129 125 127 127 123 121 116 120 126 125 126 130 135 137 154 163 180 183 177 157 142 135 125 107 118 113 98 49 64 121 91 117 133 133 132
141 147 148 144 144 146 136 140 138 137 137 135 135 132 132 131 134 127 124 135 135 136 143 149 164 173 170 145 110 108 115 138 147 120 100 118 108 125 96 66 149 149 143
142 141 152 147 143 146 149 144 148 148 149 143 137 135 135 135 135 125 132 134 127 129 135 142 158 167 144 116 112 127 136 151 88 95 99 128 174 266 157 320 299 170 159
138 143 149 147 146 143 139 139 133 141 142 140 143 141 138 137 132 134 136 135 134 133 150 149 150 159 135 119 120 141 144 145 89 72 95 147 234 233 231 256 278 193 173
138 149 150 156 150 146 143 140 139 150 155 156 156 152 147 139 146 147 146 135 136 142 150 152 152 162 145 140 139 156 181 212 169 148 148 131 202 239 229 234 251 205 183
144 148 159 157 149 142 143 141 148 154 163 164 159 146 152 149 145 138 143 148 151 145 149 152 161 175 165 143 117 167 189 205 220 158 150 141 190 199 227 241 213 202 187
144 143 153 162 153 148 145 152 156 160 162 171 165 161 156 158 158 159 159 151 151 154 160 176 183 175 162 133 124 153 183 214 64 313 128 134 180 216 218 217 203 198 190
145 148 148 167 138 130 144 159 163 162 173 184 176 168 165 169 169 172 175 173 169 171 173 184 176 166 167 130 121 163 188 217 272 309 17 286 210 216 221 207 200 195 192
154 160 157 166 152 143 145 169 168 172 179 181 185 175 174 164 194 202 189 195 182 182 188 187 191 190 188 145 124 151 184 172 216 228 210 270 204 199 193 193 189 192 193
164 172 171 169 165 158 154 149 161 191 163 164 184 211 188 196 220 219 217 209 201 191 197 193 204 203 193 94 137 147 166 177 202 203 226 231 191 191 188 190 185 190 198
174 170 181 169 169 165 149 156 168 195 184 192 208 218 216 239 223 224 200 219 204 203 177 184 211 212 169 140 173 174 188 202 170 198 256 196 201 195 190 190 192 194 198
177 172 172 161 162 153 163 167 175 189 198 204 211 225 218 252 241 203 156 208 255 278 193 175 195 214 192 152 175 177 207 186 187 229 267 217 214 213 201 192 198 196 199
170 167 182 165 164 165 172 168 180 207 213 210 198 221 210 255 182 165 150 206 207 226 163 207 198 193 200 183 158 181 189 189 186 195 220 223 222 214 205 201 200 201 203
165 176 169 163 161 164 167 172 190 195 226 217 228 235 217 191 159 109 147 239 151 98 168 191 196 194 179 181 189 188 191 198 200 182 197 207 216 221 212 204 203 204 206
177 173 164 155 156 159 182 182 187 207 206 228 228 225 224 166 149 149 155 125 87 16 74 91 178 255 205 286 234 184 187 223 210 199 188 202 209 220 215 206 204 205 209
159 168 158 168 168 175 176 189 189 196 224 250 267 192 211 179 157 164 140 131 127 73 137 110 108 273 103 213 253 238 203 199 197 191 198 190 201 203 213 209 206 204 210
166 164 163 163 172 179 175 183 187 174 214 243 196 157 197 195 169 166 101 126 151 122 60 47 329 231 210 285 251 243 176 180 198 178 184 198 205 197 197 212 206 204 211
166 165 159 171 171 172 163 170 181 146 222 249 234 236 238 193 172 152 157 138 144 175 36 174 220 184 158 236 271 131 220 204 167 168 180 188 199 201 194 207 200 204 213
164 166 168 157 182 156 165 159 179 191 224 236 239 249 218 182 191 188 183 147 104 109 224 161 283 138 40 296 60 337 17 352 263 162 177 181 203 204 205 208 198 194 217
172 176 171 175 175 176 175 177 153 156 221 215 241 221 184 169 192 196 182 195 230 57 287 240 207 136 97 337 121 117 40 341 356 128 249 188 201 197 220 208 197 194 206
174 178 180 176 180 178 180 145 84 78 34 13 297 97 172 197 192 197 192 220 194 167 152 195 193 139 151 261 24 137 95 222 326 319 229 206 188 208 201 197 203 195 207
186 178 174 172 178 186 177 170 159 171 158 216 230 209 170 192 187 237 171 192 203 160 170 212 200 125 127 150 77 49 94 135 171 332 302 266 171 175 252 242 208 211 204
178 176 178 176 184 189 180 176 171 174 190 203 181 211 192 194 216 236 203 180 230 212 180 200 167 131 167 158 140 156 113 124 156 147 303 319 33 196 208 231 237 201 178
178 176 177 175 187 192 184 179 178 192 196 188 174 193 235 249 266 234 249 174 225 209 182 196 195 147 173 201 170 160 178 171 184 175 143 260 220 280 262 218 150 197 192